Location: Warszawa
(52.2500°N, 21.0000°E)
Time: 19:48:52
(UTC+02:00)

Vanguard 2 - Pass Details

Date: 02 February 2023
Orbit: 553 x 2927 km, 32.9° (Epoch: 27 March)

Event Time Altitude Azimuth Distance (km) Brightness Sun altitude
Rises 19:35:51 0° 187° (S) 5,343 11.8 -29.3°
Reaches altitude 10° 19:41:16 10° 167° (SSE) 4,799 11.3 -30.1°
Enters shadow 19:43:20 13° 159° (SSE) 4,711 11.2 -30.4°
